Probability
0 0 0 0 0 0 0 0 0 0 0 0 0 0 0 0 0 0 0 0 0 0 0 0 0 0 0 0 0 0 0 0 0 0 0 0 0 0 0 0 0 0 0
0 0 0 0 0 0 0 0 0 0 0 0 0 0 0 0 0 0 0 0 0 0 0 0 0 0 0 0 0 0 0 0 0 0 0 0 0 0 0 0 0 0 0
0 0 0 0 0 0 0 0 0 0 0 0 0 0 0 0 0 0 0 0 0 0 0 0 0 0 0 0 0 0 0 0 0 0 0 0 0 0 0 0 0 0 0
0 0 0 0 0 0 0 0 0 0 0 0 0 0 0 0 0 0 0 0 0 0 0 0 0 0 0 0 0 0 0 0 0 0 0 0 0 0 0 0 0 0 0
0 0 0 0 0 0 0 0 0 0 0 0 0 0 0 0 0 0 0 0 0 0 0 0 0 0 0 0 0 0 0 0 0 0 0 0 0 0 0 0 0 0 0
0 0 0 0 0 0 0 0 0 0 0 0 0 0 0 0 0 0 0 0 0 0 0 0 0 0 0 0 0 0 0 0 0 0 0 0 0 0 0 0 0 0 0
0 0 0 0 0 0 0 0 0 0 0 0 0 0 0 0 0 0 0 0 0 0 0 0 0 0 0 0 0 0 0 0 0 0 0 0 0 0 0 0 0 0 0
0 0 0 0 0 0 0 0 0 0 0 0 0 0 0 0 0 0 0 0 0 0 0 0 0 0 0 0 0 0 0 0 0 0 0 0 0 0 0 0 0 0 0
0 0 0 0 0 0 0 0 0 0 0 0 0 0 0 0 0 0 0 0 0 0 0 0 0 0 0 0 0 0 0 0 0 0 0 0 0 0 0 0 0 0 0
0 0 0 0 0 0 0 0 0 0 0 0 0 0 0 0 0 0 0 0 0 0 0 0 0 0 0 0 0 0 0 0 0 0 0 0 0 0 0 0 0 0 0
0 0 0 0 0 0 0 0 0 0 0 0 0 0 0 0 0 0 0 0 0 0 0 0 0 0 0 0 0 0 0 0 0 0 0 0 0 0 0 0 0 0 0
0 0 0 0 0 0 0 0 0 0 0 0 0 0 0 0 0 0 0 0 0 0 0 0 0 0 0 0 0 0 0 0 0 0 0 0 0 0 0 0 0 0 0
0 0 0 0 0 0 0 0 0 0 0 0 0 0 0 0 0 0 0 0 0 0 0 0 0 0 0 0 0 0 0 0 0 0 0 0 0 0 0 0 0 0 0
0 0 0 0 0 0 0 0 0 0 0 0 0 0 0 0 0 0 0 0 0 0 0 0 0 0 0 0 0 0 0 0 0 0 0 0 0 0 0 0 0 0 0
0 0 0 0 0 0 0 0 0 0 0 0 0 0 0 0 0 0 0 0 0 0 0 0 0 0 0 0 0 0 0 0 0 0 0 0 0 0 0 0 0 0 0
0 0 0 0 0 0 0 0 0 0 0 0 0 0 0 0 0 0 0 0 0 0 0 0 0 0 0 0 0 0 0 0 0 0 0 0 0 0 0 0 0 0 0
0 0 0 0 0 0 0 0 0 0 0 0 0 0 0 0 0 0 0 0 0 0 0 0 0 0 0 0 0 0 0 0 0 0 0 0 0 0 0 0 0 0 0
0 0 0 0 0 0 0 0 0 0 0 0 0 0 0 0 0 0 0 0 0 0 0 0 0 0 0 0 0 0 0 0 0 0 0 0 0 0 0 0 0 0 0
0 0 0 0 0 0 0 0 0 0 0 0 0 0 0 0 0 0 0 0 0 0 0 0 0 0 0 0 0 0 0 0 0 0 0 0 0 0 0 0 0 0 0
0 0 0 0 0 0 0 0 0 0 0 0 0 0 0 0 0 0 0 0 0 0 0 0 0 0 0 0 0 0 0 0 0 0 0 0 0 0 0 0 0 0 0
0 0 0 0 0 0 0 0 0 0 0 0 0 0 0 0 0 0 0 0 0 0 0 0 0 0 0 0 0 0 0 0 0 0 0 0 0 0 0 0 0 0 0
0 0 0 0 0 0 0 0 0 0 0 0 0 0 0 0 0 0 0 0 0 0 0 0 0 0 0 0 0 0 0 0 0 0 0 0 0 0 0 0 0 0 0
0 0 0 0 0 0 0 0 0 0 1 1 1 1 0 0 0 0 0 0 0 0 0 0 0 0 0 0 0 0 0 0 0 0 0 0 0 0 0 0 0 0 0
0 0 0 0 0 0 0 0 0 0 0 1 1 1 1 0 0 0 0 0 0 0 0 0 0 0 0 0 0 0 0 0 0 0 0 0 0 0 0 0 0 0 0
0 0 0 0 0 0 0 0 0 0 0 0 1 1 1 0 0 0 0 0 0 0 0 0 0 0 0 0 0 0 0 0 0 0 0 0 0 0 0 0 0 0 0
0 0 0 0 0 0 0 0 0 0 0 0 0 1 1 0 0 0 0 0 0 0 0 0 0 0 0 0 0 0 0 0 0 0 0 0 0 0 0 0 0 0 0
Wind_Speed
8 10 11 9 9 10 10 10 10 11 12 13 13 13 13 13 14 14 14 15 16 16 17 17 17 18 18 18 19 19 19 19 19 19 19 19 19 19 18 16 15 16 20
11 11 11 9 10 10 10 10 10 11 12 12 13 13 13 13 14 14 14 15 15 16 16 16 17 17 17 17 18 18 18 18 17 14 14 17 18 19 19 19 17 14 19
13 12 12 9 10 10 10 10 10 11 12 12 13 13 13 13 13 14 14 14 15 16 16 16 16 16 16 17 17 17 17 16 14 10 10 13 16 18 19 19 18 18 18
12 11 11 10 10 10 10 10 10 11 12 12 12 13 13 13 13 13 14 14 15 15 16 16 16 16 16 16 16 16 16 15 11 8 10 12 13 17 19 19 18 18 18
11 10 11 10 10 11 10 10 10 11 11 12 12 12 13 13 13 13 13 13 14 15 15 15 15 15 15 15 15 15 15 13 9 10 11 12 12 16 18 18 18 18 17
11 10 12 9 11 10 10 10 10 11 11 12 12 12 12 12 12 12 12 13 13 14 15 15 15 15 15 15 15 14 14 10 8 10 11 11 11 15 17 17 17 17 16
11 10 11 9 9 10 10 10 10 10 11 11 12 12 12 11 11 11 12 12 13 13 14 14 14 14 14 14 14 14 12 8 9 10 10 10 12 15 16 16 16 16 16
11 10 11 9 8 8 9 9 9 10 10 11 11 11 11 11 11 11 11 11 12 13 13 14 13 13 13 13 13 13 11 7 9 10 10 10 12 14 15 15 15 15 15
10 10 9 10 9 8 7 8 8 8 9 9 10 10 10 10 10 9 9 10 11 12 13 13 13 12 12 12 12 12 10 7 8 7 8 8 11 13 14 14 14 14 14
9 9 9 9 9 9 9 8 8 8 8 9 10 10 10 9 9 8 8 9 10 11 12 12 12 12 12 11 11 10 7 3 7 7 6 7 10 12 13 13 13 13 13
9 8 8 9 8 8 8 8 8 8 8 9 9 9 7 7 7 6 8 8 9 10 11 11 11 11 9 10 9 7 3 4 5 5 5 7 9 11 11 11 11 11 11
12 11 9 9 9 8 6 7 6 6 7 6 6 8 5 5 4 5 9 9 9 9 10 10 9 7 4 4 5 2 3 4 4 4 5 6 8 10 10 10 10 10 10
12 11 10 9 9 8 6 5 4 4 5 6 7 7 5 5 5 5 4 5 6 6 5 6 4 3 3 3 2 2 3 2 2 3 4 5 6 8 9 9 8 8 9
12 12 11 11 9 9 7 6 5 4 4 5 6 7 6 4 4 4 3 4 4 3 3 3 2 3 3 3 3 3 2 1 1 2 4 4 4 6 7 8 8 8 8
13 13 12 12 11 9 8 6 6 6 5 6 5 7 7 5 5 5 4 4 4 3 4 3 3 4 4 3 2 2 2 2 2 1 2 4 3 3 5 7 7 7 7
14 14 13 13 12 11 9 7 6 6 6 6 6 7 8 5 5 5 5 5 4 4 4 4 4 4 3 3 3 3 2 2 2 2 1 2 2 1 3 5 6 7 7
14 13 13 13 12 12 11 10 7 6 6 6 6 8 8 7 7 6 5 5 5 4 5 4 5 4 3 3 4 4 3 3 3 3 3 2 2 1 1 3 6 7 7
13 13 14 11 13 13 11 10 7 7 7 6 6 7 9 9 8 7 6 5 5 5 5 5 5 5 4 4 4 4 3 3 4 4 4 4 3 3 3 3 5 6 7
13 14 14 14 14 13 12 9 9 7 8 7 7 7 9 10 10 8 6 5 6 5 5 5 5 5 5 5 4 4 4 4 5 5 6 6 5 5 4 4 4 5 7
13 14 14 14 15 13 10 8 7 8 8 7 7 8 10 9 11 9 6 7 7 6 6 6 6 5 4 4 4 4 4 5 5 6 7 6 5 6 6 6 5 5 8
12 14 15 15 15 12 10 10 9 9 8 8 8 10 11 11 11 10 7 8 8 8 8 8 6 6 5 3 3 4 5 7 8 7 6 6 7 7 6 6 6 5 5
10 12 14 15 15 15 12 11 9 9 8 8 8 10 12 12 12 10 11 9 10 8 9 9 8 5 4 5 4 3 4 5 8 8 7 7 8 6 7 7 7 7 6
8 10 10 13 13 15 14 9 6 6 5 7 9 8 11 12 12 12 12 11 10 10 9 11 10 9 7 6 5 5 4 6 2 3 7 7 7 7 7 6 8 8 8
5 6 8 9 11 11 12 11 12 10 10 11 8 7 9 11 11 12 11 11 10 9 10 10 11 9 7 7 6 6 4 1 2 3 3 5 8 9 9 8 8 9 9
2 3 5 7 7 9 10 12 12 11 9 6 6 6 7 7 9 10 10 10 10 9 10 9 10 10 8 8 7 5 5 4 4 4 6 4 4 7 8 9 8 9 10
1 1 2 4 5 6 8 9 10 10 8 6 5 5 4 4 4 7 7 8 9 8 10 10 10 12 10 9 7 6 6 5 6 7 9 7 6 5 6 8 9 9 9
Wind_Direction
151 145 134 133 124 115 107 103 100 100 97 95 91 87 85 82 80 79 78 76 74 73 73 72 72 72 72 72 71 71 71 71 72 73 74 74 75 74 71 68 73 73 72
144 143 133 133 126 119 113 109 105 104 101 99 96 91 88 85 83 81 80 78 77 76 76 75 75 74 74 75 74 73 73 73 72 71 80 79 74 74 73 70 70 75 75
143 142 140 131 128 123 118 114 111 108 105 102 99 96 93 90 87 84 81 80 80 79 79 78 78 77 76 76 76 75 75 73 68 62 78 81 79 76 76 75 76 76 76
143 144 141 131 132 127 123 118 115 112 109 106 103 100 97 93 89 86 83 82 82 82 82 81 80 79 78 77 77 76 74 71 60 61 75 77 78 76 76 75 74 74 75
144 143 134 137 135 131 126 122 119 117 114 109 107 103 100 95 91 88 85 84 85 85 85 84 83 81 80 79 78 76 74 72 64 74 77 78 79 78 77 75 73 72 72
146 146 139 143 138 135 130 126 123 122 118 113 109 106 102 99 95 91 89 87 88 87 87 86 85 83 82 81 79 77 73 65 78 76 76 77 81 83 82 80 77 75 74
150 148 146 144 140 138 136 131 127 124 121 117 113 110 107 103 99 96 92 91 92 91 90 88 87 85 83 81 78 75 68 53 74 76 74 76 80 83 83 82 80 78 77
152 151 149 141 140 139 137 133 130 127 125 123 119 116 112 109 103 98 94 93 95 95 93 92 89 87 84 82 78 72 57 50 82 79 78 79 82 85 85 83 81 80 79
158 157 157 158 154 143 135 133 131 128 125 124 122 116 108 104 101 93 91 95 97 97 97 94 91 89 86 83 79 72 59 37 80 79 79 79 83 87 87 86 85 84 83
166 167 165 165 165 162 155 138 131 127 124 118 114 110 106 104 100 92 101 97 99 101 101 98 94 90 86 82 77 71 56 61 78 80 78 82 84 90 90 89 88 88 87
175 177 175 173 172 169 163 150 144 132 126 128 123 120 135 137 128 122 98 95 99 102 103 102 98 93 91 86 75 64 53 71 77 73 78 83 92 96 95 93 93 93 92
184 185 184 184 179 176 168 165 166 163 158 165 156 156 156 142 124 117 94 85 88 94 99 98 99 105 108 103 95 81 78 82 79 78 80 86 102 103 102 100 99 98 97
189 188 191 190 187 183 177 177 172 171 169 172 170 167 158 151 144 145 136 127 121 121 114 114 124 111 100 94 97 88 81 80 75 84 80 72 108 113 111 109 109 106 103
195 195 194 193 192 192 186 184 180 179 179 179 176 176 172 168 169 162 163 155 156 150 138 137 125 119 116 111 107 106 105 96 89 86 72 52 100 123 125 125 123 119 115
201 200 199 197 197 194 193 191 190 190 191 186 182 185 189 181 178 173 170 172 171 164 167 160 152 147 144 137 131 138 138 124 122 123 108 58 55 125 143 143 140 138 133
205 203 200 200 201 198 199 199 197 196 194 193 192 193 195 192 184 180 179 181 181 180 176 177 169 168 164 162 161 163 174 171 170 179 172 137 74 76 165 167 162 158 154
207 206 204 203 202 203 204 205 203 200 197 198 197 195 195 198 193 188 186 187 185 180 176 176 172 180 180 181 182 183 193 201 203 204 207 216 196 164 190 192 188 183 178
210 209 207 203 206 207 206 206 205 203 201 203 198 195 199 199 196 193 194 192 181 178 183 184 183 189 193 199 200 198 206 209 215 220 219 222 224 216 201 209 213 205 201
215 212 211 208 210 210 208 207 205 201 203 204 201 200 201 201 199 198 198 191 181 185 190 188 195 199 202 204 207 210 218 223 224 226 226 226 230 233 231 212 222 224 221
219 217 214 212 212 211 208 207 206 206 206 205 205 206 201 201 200 201 200 192 186 191 195 197 198 202 214 205 207 227 233 237 238 236 234 230 231 233 237 233 226 221 230
219 217 215 214 211 207 204 205 207 210 208 207 208 210 205 202 200 201 200 195 194 202 203 197 190 199 205 184 202 238 242 236 239 235 234 236 231 229 234 236 237 234 228
219 219 218 215 213 209 210 210 213 214 212 209 207 212 210 206 203 203 205 201 198 202 203 200 194 193 189 183 197 212 250 236 226 226 226 232 237 233 234 234 238 237 237
222 222 219 217 214 213 212 210 205 207 206 207 211 213 214 211 208 207 209 206 203 203 207 205 202 199 199 198 209 204 218 244 240 218 229 231 230 232 236 234 236 237 239
238 234 226 220 216 214 210 210 208 209 215 218 214 212 212 214 215 214 213 212 209 208 212 208 205 208 203 202 208 232 244 294 238 268 229 231 235 236 233 232 234 235 235
259 232 216 209 208 208 209 212 214 220 224 223 213 209 210 211 217 217 215 213 213 213 216 211 204 207 211 212 201 196 214 229 240 248 265 245 229 234 234 232 234 235 232
83 122 160 168 175 190 199 208 214 219 217 213 207 208 208 210 216 219 217 216 215 215 216 215 209 209 214 217 211 199 194 198 206 217 244 255 257 241 225 230 232 234 232